User: anonymous   Login
Location: *
(42.0175°N, 9.4056°E)
Time: 14:24:43
(UTC+00:00)
Language:

SPOT 5 - Orbit

View from above orbital plane
View from above orbital plane
View from above satellite
View from above satellite

Ground track
Ground track

The orbit data is extracted from the following two-line orbital elements,

1 27421U 02021A   19288.19504124  .00000012  00000-0  14414-4 0  9996
2 27421  98.3027 357.1426 0134186 242.1579 116.5968 14.52005170909018
Epoch (UTC): 15 October 2019 04:40:51
Eccentricity: 0.0134186
inclination: 98.3027°
perigee height: 624 km
apogee height: 814 km
right ascension of ascending node: 357.1426°
argument of perigee: 242.1579°
revolutions per day: 14.52005170
mean anomaly at epoch: 116.5968°
orbit number at epoch: 90901

The dashed part of the orbit path shows where the satellite is in the earth's shadow,  

DLR